N9IHX Weather Reports


time (UTC)temp
C
wind
direction
speed
KPH
gust
KPH
rain 1hr
cm
rain 24hr
cm
rain mn
cm
humidity
%
barometer
mb
20260906121010 20 113 3.2 6.4 0.00 0.00 0.00 83 1020.1
20260906120009 18 53 0.0 0.0 0.00 0.00 0.00 84 1019.7
20260906115009 18 53 0.0 0.0 0.00 0.00 0.00 84 1019.6
20260906114009 18 53 0.0 0.0 0.00 0.00 0.00 84 1019.5
20260906113009 18 53 0.0 0.0 0.00 0.00 0.00 84 1019.4
20260906112008 18 53 0.0 0.0 0.00 0.00 0.00 84 1019.4
20260906111008 18 53 0.0 0.0 0.00 0.00 0.00 84 1019.2
20260906110008 18 53 0.0 0.0 0.00 0.00 0.00 84 1019.2
20260906105007 18 53 0.0 0.0 0.00 0.00 0.00 84 1019.1
20260906104007 18 53 0.0 0.0 0.00 0.00 0.00 84 1019.1
20260906103007 18 53 0.0 0.0 0.00 0.00 0.00 84 1018.9
20260906102006 18 53 0.0 0.0 0.00 0.00 0.00 84 1018.8
20260906100006 18 53 0.0 0.0 0.00 0.00 0.00 84 1018.8
20260906094005 19 53 0.0 0.0 0.00 0.00 0.00 84 1018.7
20260906092005 20 53 0.0 0.0 0.00 0.00 0.00 84 1018.7
20260906091005 20 71 0.0 1.6 0.00 0.03 0.00 84 1018.7
20260906090004 20 53 0.0 3.2 0.00 0.03 0.00 83 1018.7
20260906084003 20 352 1.6 4.8 0.00 0.03 0.00 83 1018.8
20260906083004 20 116 3.2 6.4 0.00 0.03 0.00 83 1018.8
20260906082003 20 116 0.0 3.2 0.00 0.03 0.00 83 1018.7
20260906081003 20 115 0.0 0.0 0.00 0.03 0.00 83 1018.8
20260906080003 20 115 0.0 1.6 0.00 0.03 0.00 82 1018.7
20260906075002 20 116 0.0 1.6 0.00 0.03 0.00 82 1018.7
20260906074002 20 115 1.6 1.6 0.00 0.03 0.00 82 1018.7
20260906073002 20 116 0.0 3.2 0.00 0.03 0.00 82 1018.8
20260906072001 20 116 0.0 3.2 0.00 0.03 0.00 81 1018.7
20260906071001 20 116 0.0 1.6 0.00 0.03 0.00 82 1018.8
20260906070001 20 115 0.0 1.6 0.00 0.03 0.00 82 1018.9
20260906065001 20 115 0.0 0.0 0.00 0.03 0.00 82 1018.7
20260906064000 20 115 0.0 1.6 0.00 0.03 0.00 82 1018.6
20260906063000 20 116 0.0 0.0 0.00 0.03 0.00 83 1018.7
20260906061959 20 116 0.0 0.0 0.00 0.03 0.00 83 1018.7
20260906060959 20 116 0.0 1.6 0.00 0.03 0.00 83 1018.7
20260906055959 20 115 0.0 3.2 0.00 0.03 0.00 83 1018.7
20260906054959 20 116 0.0 1.6 0.00 0.03 0.00 84 1018.8
20260906053959 20 115 0.0 0.0 0.00 0.03 0.00 84 1018.7
20260906052959 20 116 0.0 1.6 0.00 0.03 0.00 84 1018.6
20260906051958 20 116 0.0 4.8 0.00 0.03 0.00 84 1018.4
20260906050958 20 115 0.0 1.6 0.00 0.03 0.00 84 1018.3
20260906045957 20 115 0.0 6.4 0.00 0.03 0.00 84 1018.3
20260906043957 20 131 0.0 3.2 0.00 0.03 0.03 83 1018.2
20260906042956 20 41 1.6 8.0 0.00 0.03 0.03 83 1018.1
20260906041956 20 72 1.6 8.0 0.00 0.03 0.03 83 1017.8
20260906040956 20 58 1.6 6.4 0.00 0.03 0.03 82 1017.8
20260906035956 21 58 1.6 6.4 0.00 0.03 0.03 82 1017.7
20260906032955 21 118 0.0 9.7 0.00 0.03 0.03 82 1017.7
20260906031955 21 312 4.8 9.7 0.00 0.05 0.03 82 1017.7
20260906030954 21 314 1.6 12.9 0.00 0.05 0.03 81 1017.7
20260906024954 21 69 6.4 11.3 0.00 0.05 0.03 82 1017.7
20260906023953 21 110 3.2 6.4 0.00 0.05 0.03 82 1017.6
20260906021953 21 90 4.8 16.1 0.00 0.05 0.03 81 1017.5
20260906020952 21 65 0.0 16.1 0.00 0.05 0.03 81 1017.7
20260906020022 21 83 3.2 9.7 0.00 0.05 0.03 81 1017.8
20260906014952 21 68 0.0 11.3 0.00 0.05 0.03 80 1017.9
20260906014022 21 46 4.8 12.9 0.00 0.05 0.03 80 1017.8
20260906013021 21 27 1.6 6.4 0.00 0.05 0.03 80 1017.7
20260906012021 21 352 1.6 14.5 0.00 0.05 0.03 80 1017.8
20260906011021 21 357 6.4 11.3 0.00 0.05 0.03 80 1017.7
20260906010021 21 96 1.6 19.3 0.00 0.05 0.03 80 1017.5
20260906005020 21 68 0.0 12.9 0.00 0.05 0.03 80 1017.2
20260906004020 21 73 3.2 14.5 0.00 0.05 0.03 80 1017.2
20260906003020 21 53 8.0 14.5 0.00 0.05 0.03 80 1017.2
20260906002020 21 53 0.0 9.7 0.00 0.05 0.03 80 1017.1
20260906000019 21 61 0.0 16.1 0.00 0.05 0.03 81 1017.3
20260905235019 21 64 6.4 20.9 0.00 0.05 0.03 81 1017.2
20260905234019 21 343 6.4 17.7 0.00 0.05 0.03 80 1017.2
20260905233018 21 316 3.2 19.3 0.00 0.05 0.03 80 1017.2
20260905232018 21 62 3.2 12.9 0.00 0.05 0.03 80 1017.2
20260905231018 21 78 8.0 17.7 0.00 0.05 0.03 80 1017.1
20260905225017 21 18 9.7 14.5 0.00 0.05 0.03 80 1016.9
20260905224016 21 11 4.8 19.3 0.00 0.05 0.03 80 1017.1
20260905223016 21 120 1.6 12.9 0.00 0.05 0.03 79 1017.0
20260905221016 22 101 4.8 14.5 0.00 0.05 0.03 78 1016.9
20260905215015 22 36 1.6 16.1 0.00 0.05 0.03 78 1016.7
20260905212014 23 60 3.2 14.5 0.00 0.05 0.03 76 1016.5
20260905210014 25 345 3.2 12.9 0.00 0.05 0.03 73 1016.5
20260905205014 25 359 9.7 12.9 0.00 0.05 0.03 71 1016.5
20260905204013 25 335 11.3 20.9 0.00 0.05 0.03 72 1016.5
20260905202013 25 51 1.6 17.7 0.00 0.05 0.03 72 1016.6
20260905201012 25 342 3.2 17.7 0.00 0.05 0.03 71 1016.5
20260905200012 25 8 1.6 12.9 0.00 0.05 0.03 73 1016.5
20260905195012 24 354 1.6 8.0 0.00 0.05 0.03 75 1016.8
20260905194012 24 113 4.8 11.3 0.00 0.05 0.03 74 1016.9
20260905193012 24 345 1.6 14.5 0.00 0.05 0.03 74 1016.9
20260905192011 24 61 6.4 17.7 0.00 0.05 0.03 72 1016.9
20260905191010 24 68 3.2 16.1 0.00 0.05 0.03 74 1016.9
20260905190010 24 36 3.2 11.3 0.00 0.05 0.03 74 1016.9
20260905185010 24 56 3.2 17.7 0.00 0.05 0.03 73 1017.0
20260905184010 24 352 3.2 16.1 0.00 0.05 0.03 75 1017.1
20260905183009 23 333 8.0 16.1 0.00 0.05 0.03 75 1017.1
20260905182009 23 328 6.4 16.1 0.00 0.05 0.03 76 1017.1
20260905181009 23 44 8.0 19.3 0.00 0.05 0.03 75 1017.1
20260905180009 23 348 3.2 14.5 0.00 0.05 0.03 74 1017.0
20260905175008 24 88 3.2 14.5 0.00 0.05 0.03 74 1016.9
20260905174008 24 85 8.0 19.3 0.00 0.05 0.03 73 1016.9
20260905173008 24 332 4.8 9.7 0.00 0.05 0.03 74 1017.0
20260905172007 23 96 4.8 14.5 0.00 0.05 0.03 75 1017.0
20260905171007 23 50 4.8 14.5 0.00 0.05 0.03 76 1017.1
20260905170007 23 338 4.8 14.5 0.00 0.05 0.03 75 1017.2
20260905164006 23 353 6.4 14.5 0.00 0.05 0.03 76 1017.3
20260905163006 23 70 9.7 17.7 0.00 0.05 0.03 77 1017.1
20260905162006 23 343 1.6 16.1 0.00 0.05 0.03 77 1017.2
20260905161006 23 340 6.4 14.5 0.00 0.05 0.03 78 1017.0
20260905160006 23 335 8.0 14.5 0.00 0.05 0.03 78 1016.9
20260905155005 23 53 3.2 12.9 0.00 0.05 0.03 78 1017.1
20260905152004 22 333 1.6 16.1 0.00 0.05 0.03 81 1016.6
20260905151004 22 61 6.4 16.1 0.00 0.05 0.03 81 1016.5
20260905150004 22 39 1.6 16.1 0.00 0.05 0.03 81 1016.4
20260905145003 22 338 4.8 16.1 0.00 0.05 0.03 82 1016.6
20260905144003 22 328 1.6 11.3 0.00 0.05 0.03 83 1016.4
20260905143003 22 328 8.0 8.0 0.00 0.05 0.03 83 1016.3
20260905142002 22 342 4.8 9.7 0.00 0.05 0.03 83 1016.3
20260905141002 22 81 4.8 9.7 0.00 0.05 0.03 84 1016.0
20260905140002 22 8 3.2 16.1 0.00 0.05 0.03 84 1016.1
20260905135001 22 89 0.0 11.3 0.00 0.05 0.03 84 1016.2
20260905134001 22 61 0.0 11.3 0.00 0.05 0.03 84 1016.3
20260905133001 22 6 1.6 9.7 0.00 0.05 0.03 85 1016.5
20260905132000 22 39 3.2 8.0 0.00 0.05 0.03 86 1016.3
20260905131001 22 342 1.6 6.4 0.00 0.05 0.03 86 1016.0
20260905130000 22 348 3.2 6.4 0.00 0.05 0.03 87 1015.9
20260905125000 22 59 1.6 6.4 0.00 0.05 0.03 87 1015.8
20260905124000 21 47 0.0 8.0 0.00 0.05 0.03 87 1015.7